Weather in Golmarmara

Turkey     38°42′48″N   27°55′06″E
temp.,
°C
wind,
m/s
gust,
m/s
humid.,
%
clouds,
%
prec.,
mm/h
press.,
hPa
HPBL,
m
22 april, thu
thu2200:00+10w01731 0.0 102110
03:00+9nnw11760 0.0 102110
06:00+8ene01780 0.0 102210
09:00+13se01610 0.0 1022366
12:00+17wsw21400 0.0 10231396
15:00+19wnw22322 0.0 10211568
18:00+19w32330 0.0 10201060
21:00+14n1141100 0.0 102110
23 april, fri
fri2300:00+14n1145100 0.0 102011
03:00+12n0051100 0.0 102010
06:00+11e115338 0.0 101910
09:00+15se1144100 0.0 1019252
12:00+20wsw22345 0.0 1020915
15:00+22w4431100 0.0 10191251
18:00+22wnw333684 0.0 10181117
21:00+16nw2256100 0.0 101911
24 april, sat
sat2400:00+15n2262100 0.0 101914
03:00+15n1163100 0.0 101812
06:00+14wnw116596 0.0 101711
09:00+16ssw1162100 0.0 1018251
12:00+15wsw2271100 0.1 1018281
15:00+16ene1267100 0.1 1017357
18:00+19wnw1157100 0.0 1015986
21:00+14wnw1190100 1.4 101666
25 april, sun
sun2500:00+14nne2291100 1.2 101545
03:00+13nw2391100 1.2 101468
06:00+12n1290100 0.1 101327
09:00+15nw1175100 0.2 1013390
12:00+16nnw2276100 0.9 1013461
15:00+19nw54615 0.9 1011612
18:00+14nnw56704 0.4 1012528
21:00+9nw3587100 0.4 1014243
26 april, mon
mon2600:00+9nnw348817 0.0 1016164
03:00+8nnw239029 0.0 101661
06:00+8nnw228760 0.0 101556
09:00+12n347052 0.0 1016747
12:00+16nnw445430 0.0 10161102
15:00+21nnw45390 0.0 10131686
18:00+19nnw67460 0.0 1013677
21:00+11nnw34680 0.0 101565